Tracking 26951 objects as of 4-Feb-2023
HD Live streaming from Space Station
objects crossing your sky now

STARLINK-3650

Track STARLINK-3650 now!
10-day predictions
STARLINK-3650 is classified as:


NORAD ID: 51982
Int'l Code: 2022-025AC
Perigee: 545.9 km
Apogee: 547.8 km
Inclination: 53.2 °
Period: 95.4 minutes
Semi major axis: 6917 km
RCS: Unknown
Launch date: March 9, 2022
Source: United States (US)
Launch site: AIR FORCE EASTERN TEST RANGE (AFETR)
Your satellite tracking list
Your tracking list is empty




NASA's NSSDC Master Catalog

Two Line Element Set (TLE):
1 51982U 22025AC  23034.54130540  .00000778  00000-0  66994-4 0  9990
2 51982  53.2163  72.5584 0001370  91.1153 268.9997 15.08840205 50445
Source of the keplerian elements: AFSPC